Regional Weather Roundup
Issued by NWS

Home | Current Version | Previous Version | Text Only | Print | Product List | Glossary On
Versions: 1 2 3 4 5 6 7 8 9 10 11 12 13 14 15 16 17 18 19 20 21 22 23 24 25 26 27 28 29 30 31 32 33 34 35 36 37 38 39 40 41 42 43 44 45 46 47 48 49 50
000
ASUS44 KEWX 251410
RWRTX
SOUTH TEXAS REGIONAL WEATHER ROUNDUP
NATIONAL WEATHER SERVICE AUSTIN/SAN ANTONIO TX
800 AM CST THU DEC 25 2014

NOTE: "FAIR" INDICATED FEW OR NO CLOUDS BELOW 12,000 FEET WITH NO
SIGNIFICANT WEATHER AND/OR OBSTRUCTIONS TO VISIBILITY.

* - THESE STATIONS ARE NOT NWS OR FAA STATIONS...AND ARE NOT SUBJECT
    TO NWS AND FAA QUALITY CONTROL.

TXZ171-172-183>190-251500-
TEXAS HILL COUNTRY AND EDWARDS PLATEAU

CITY           SKY/WX    TMP DP  RH WIND       PRES   REMARKS
JUNCTION       PTCLDY    35  22  58 CALM      30.01R
*LLANO         CLEAR     30  27  86 CALM      30.06R
BURNET         CLEAR     39  25  57 S9        30.03S WCI  33
*HORSESHOE BAY CLEAR     44  24  45 CALM      30.02R
*KERRVILLE     PTCLDY    36  27  69 SE9       30.05R WCI  29
*FREDERICKSBRG CLEAR     38  24  56 SW8       30.03R WCI  32
*ROCKSPRINGS   PTCLDY    41  21  45 S15       30.02S WCI  33
*BOERNE STAGE  PTCLDY    41  25  52 S10       30.08R WCI  35
HONDO          PTCLDY    24  20  84 N6        30.11R WCI  17
*UVALDE        PTCLDY    30  23  74 E6        30.08S WCI  24
DEL RIO        PTCLDY    35  24  64 E8        30.02S WCI  29
LAUGHLIN AFB   PTCLDY    32  24  74 E8        30.03R WCI  24
CARRIZO SPRGS  PTCLDY    37  28  70 S8        30.05F WCI  31
$$

TXZ173-191>194-202-209-217>225-228-251500-
CENTRAL AND SOUTH CENTRAL TEXAS

CITY           SKY/WX    TMP DP  RH WIND       PRES   REMARKS
GEORGETOWN     CLEAR     34  27  75 CALM      30.05R
AUSTIN/BERGSTM PTCLDY    30  26  85 SW3       30.09R
AUSTIN/MABRY   CLEAR     40  28  62 S5        30.09R WCI  37
*AUSTIN/EXEC   CLEAR     32  28  86 S9        30.08R WCI  24
*LAGO VISTA    CLEAR     45  26  46 S9G17     30.04R WCI  41
SAN MARCOS     CLEAR     30  25  80 S3        30.09R
NEW BRAUNFELS  PTCLDY    31  27  85 W3        30.09R
RANDOLPH AFB   PTCLDY    37  26  63 S5        30.10R WCI  34
PT SAN ANTONIO PTCLDY    28  25  90 NW2       30.08R
SAN ANTONIO    PTCLDY    33  27  78 CALM      30.10R
STINSON FIELD  CLEAR     30  27  88 CALM      30.10R FOG
*PLEASANTON    CLEAR     29  27  93 CALM      30.13R
*LA GRANGE     PTCLDY    38  32  80 SW6       30.10R WCI  34
*GIDDINGS      PTCLDY    33  32  95 S5        30.14R WCI  29
*GONZALES      PTCLDY    35  32  90 S5        30.13R WCI  31
$$

TXZ163>164-176>182-195>201-210>213-226-227-235-251500-
SOUTHEAST TEXAS

CITY           SKY/WX    TMP DP  RH WIND       PRES   REMARKS
COLLEGE STN    PTCLDY    36  31  82 SE6       30.10S WCI  31
*BRYAN         PTCLDY    35  32  89 SE6       30.11R WCI  30
*CALDWELL      PTCLDY    36  32  87 CALM      30.13R
*CROCKETT        N/A     39  36  87 S6        30.13S WCI  35
*BRENHAM       PTCLDY    36  32  87 CALM      30.12R
HUNTSVILLE     PTCLDY    40  34  79 S6        30.10S WCI  36
CONROE         PTCLDY    30  29  96 CALM      30.14R
HOUSTON BUSH   PTCLDY    37  36  96 CALM      30.14R
HOUSTON HOBBY  PTCLDY    40  36  86 S7        30.14R WCI  35
*HOUSTON SW AP PTCLDY    33  33 100 CALM      30.16R
PEARLAND       PTCLDY    38  35  89 CALM      30.16R
HOUSTON HOOKS  PTCLDY    34  34 100 CALM      30.13F
ELLINGTON FLD  PTCLDY    46  39  76 CALM      30.16R
SUGAR LAND     PTCLDY    36  35  96 CALM      30.14R
*HOUSTON EXEC  PTCLDY    36  32  87 SE5       30.14S WCI  32
*CLEVELAND MUN PTCLDY    32  32 100 CALM      30.15S FOG
*WHARTON       PTCLDY    34  34  98 CALM      30.16R
*COLUMBUS      FAIR      36  34  92 S3        30.13R
$$

TXZ214>216-236>238-251500-
THE UPPER TEXAS COAST

CITY           SKY/WX    TMP DP  RH WIND       PRES   REMARKS
*ORANGE        CLEAR     36  36  99 CALM      30.19R
PORT ARTHUR    CLEAR     40  36  86 CALM      30.18R
GALVESTON      CLEAR     47  41  80 CALM      30.17R
ANGLETON       PTCLDY    37  36  96 CALM      30.16R
*BAY CITY        N/A     38  38 100 CALM      30.15R
PALACIOS       PTCLDY    48  43  82 S6        30.16R WCI  45
$$

TXZ229>234-239>247-251500-
TEXAS COASTAL BEND AND RIO GRANDE PLAINS

CITY           SKY/WX    TMP DP  RH WIND       PRES   REMARKS
VICTORIA       PTCLDY    41  35  79 SW6       30.16R WCI  37
*BEEVILLE      PTCLDY    41  33  74 SW6       30.14R WCI  37
ROCKPORT       MOCLDY    42  38  85 SW5       30.15R WCI  39
*PORT ARANSAS  PTCLDY    49  42  75 SW7       30.15R WCI  47
*PORT LAVACA   PTCLDY    41  38  91 S3        30.16R
*INGLESIDE     MOCLDY    47  41  80 SW8       30.15R WCI  43
CORPUS CHRISTI MOCLDY    39  32  76 SW7       30.16R WCI  34
CORPUS NAS     MOCLDY    43  39  86 SW8       30.16R WCI  38
*ROBSTOWN      MOCLDY    37  33  84 CALM      30.16R
ALICE          PTCLDY    41  32  70 S7        30.14R WCI  36
KINGSVILLE NAS MOCLDY    39  35  86 S6        30.16R WCI  35
COTULLA        PTCLDY    35  26  69 SE7       30.10S WCI  29
LAREDO         CLEAR     39  30  70 SE8       30.12S WCI  34
$$

TXZ248>255-251500-
DEEP SOUTH TEXAS

CITY           SKY/WX    TMP DP  RH WIND       PRES   REMARKS
BROWNSVILLE    PTCLDY    43  35  73 SW5       30.18R WCI  40
PORT ISABEL    PTCLDY    44  36  73 SW7       30.17R HAZE    WCI  40
*SOUTH PADRE   PTCLDY   N/A N/A N/A CALM      30.18R
HARLINGEN      PTCLDY    37  33  85 S8        30.17R WCI  31
*HEBBRONVILLE  CLEAR     38  29  70 S5        30.12R WCI  35
MCALLEN        PTCLDY    39  35  86 SE7       30.16R WCI  34
*WESLACO       PTCLDY    43  34  72 S5        30.17R WCI  40
FALFURRIAS     PTCLDY    36  30  78 CALM      30.15R
EDINBURG       PTCLDY    40  33  75 S3        30.16R
*ZAPATA        PTCLDY    37  32  84 SE6       30.10S WCI  32
$$

TXZ213>215-236>238-242>244-246-247-251-254-255-251500-
CMAN STATIONS

STATION/POSITION TIME  TEMP    WIND        PRES    WAVE
                       AIR SEA DIR/SP/G            HT/PER
                 (UTC) (F)     (DEG/KT/KT) (MB)    (FT/S)
SABINE PASS      1400   49 57  130/  4/  5 1021.8
SEA RIM ST PARK  1400   55     180/  5/  5 1022.4
NORTH JETTY/GLS  1400   58 60  210/  7/  9   N/A
EAGLE POINT      1400   53 54  170/  3/  4 1021.2
MORGANS POINT    1400   52        CALM     1020.9
MISSION/ARANSAS  1300   51     210/ 10     1022.0
PORT O`CONNOR    1400          190/  9/ 10   N/A
PORT ARANSAS     1400   51 58  220/  8/  9 1021.3
MALAQUITE BEACH  1400   50 61  200/ 12/ 13 1020.5
BAFFIN BAY       1400   52     190/ 11/ 13 1021.0
PORT ISABEL      1400   48 62  220/  4/  6 1021.9
$$

GMZ080-GMZ150>470-251500-
OFFSHORE BUOY REPORTS

STATION/POSITION TIME  TEMP    WIND        PRES    WAVE
                       AIR SEA DIR/SP/G            HT/PER
                 (UTC) (F)     (DEG/KT/KT) (MB)    (FT/S)
20 E GALVESTON   1400   57 57  170/  4/  6 1021.3    1/10
90 E PT ARANSAS  1400   61 71  180/ 12/ 17 1022.1    1/ 4
35 NE PT MANSFLD 1400   62 72  170/ 14/ 17 1020.9    2/ 2
200 E PT ISABEL  1400   62 73   90/  4/  6 1022.5    4/ 6
$$


USA.gov is the U.S. government's official web portal to all federal, state and local government web resources and services.